sat.trackr.live / text

‹ back to catalog

STARLINK-1964

NORAD 47565 · 2021-009T

PAYLOAD ACTIVE UNKNOWN

§ Identity

Operator
Country
US
Launch date
2021-02-04
Launch site
AFETR
Launch vehicle
Mass (kg)
RCS (m²)

Purposes: comms

External: N2YO · Heavens-Above · Gunter

§ Orbital elements

Epoch: 2026-05-25T00:00:02.000160Z

Period
90.75 min
Inclination
53.0379°
Eccentricity
0.0007396
Mean motion
15.86747152 rev/d
Perigee alt
306.5 km
Apogee alt
316.4 km
Semi-major
6,689.5 km
B*
8.7569e-4
RAAN
308.4810°
Arg perigee
235.9520°
Mean anomaly
152.2233°
Rev number
591

§ Raw data

STARLINK-19641 47565U 21009T   26145.00002315  .00234310  00000+0  87569-3 0  99982 47565  53.0379 308.4810 0007396 235.9520 152.2233 15.86747152  5910

JSON: /api/v1/satellites/47565 · /tle

For live sub-satellite position, see the globe view (requires WebGL).

§ Visibility from observer

Set your observer location to see the next 7 days of passes ≥ 10°. The values pass through the URL so the page stays shareable.

No JS? Fill the form by hand. The geolocation button needs JavaScript.